Torna al catalogo

STARLINK-30762

AttivoComunicazioniVLEO
NORAD 58197·PAYLOAD·🇺🇸 United States

Lanciato Oct 30, 2023 da Cape Canaveral Space Force Station

Loading…

Prossimi Passaggi (prossime 24 ore)

TLE

AggiornatoSource: CelesTrak SupGP

Epoca: Sep 15, 2026, 02:35 UTC

1 58197C 23167Y   26258.10812500  .00062525  00000+0  22660-2 0  2584
2 58197  42.9996 153.9795 0001354 255.3907 349.2549 15.27528253    11

Traccia STARLINK-30762 in tempo reale con AllMySat

Download on the App Store